Showing default

TANAGER 4001, 60507

Orbit data source: Space-Track

TANAGER 4001, 60507 is a payload satellite owned by Planet (US) in SSO that was launched on Fri, 16 Aug 2024 UTC via an FALCON 9 launch vehicle from the Air Force Western Test Range (AFWTR). Payload-class satellites include a variety of spacecraft equipped with specific instruments for various scientific and technological missions. These include communications satellites like Starlink; space stations such as the ISS; scientific satellites like the Hubble; Earth observation satellites from companies like Planet Labs, Umbra, and HawkEye 360; GPS; miniature CubeSats for education and research; and military/defense satellites.

Loading next visibility...
Identifier
60507, 2024-149AR
Orbit
SSO
Country
Flag of USUS
Related business
Manufacturer
Planet
Mission
Operational Commercial Earth Obs Sci
Bus & Motor
TANAGER, Unknown motor
Mass
~150 kg wet, ~140 kg dry
Launch date (UTC)
2024-08-16 (1 year ago)
Launch vehicle
FALCON 9
Launch site
Air Force Western Test Range (AFWTR)
Object type
Payload
Rocket body
Debris
Shape & HBR
Box + 2 Pan, 1.0 m
Radar Cross Section
1.955 m², Medium (>0.1 m² and < 1m²)

Expand to show TLE details & history
Last TLE update: 10 hours ago

TLE from 10 hours ago
0 TANAGER 4001
1 60507U 24149AR  25352.78744232  .00058908  00000-0  13036-2 0  9997
2 60507  97.3923  79.9801 0002978 147.7658 212.3772 15.43601503 75207
Epoch: 2025-12-18T18:53Z
TLE epoch observation values (Epoch: 2025-12-18T18:53:55.016Z)
Latitude
-0.00006°
Longitude
68.86294°
Altitude
440.327 km
Speed
7.647 km/s
True Right ascension
05h 19m 55s
True Declination
0° 00' 00"
Sunlit
Object was in full shadow at epoch
Visualization orbit readout
Latitude
Unknown
Longitude
Unknown
Altitude
Unknown
Speed
Unknown
Apparent Right ascension
Unknown
Apparent Declination
Unknown
Sunlit
N/A
Visualization observer readout
Local Sidereal Time
03:39:55
Azimuth
Unknown
Elevation
Unknown
Doppler factor
Unknown
Orbital elements
Apogee altitude
434.452 km
Perigee altitude
430.396 km
Semi-major axis
6,810.561 km
Eccentricity
0.0003
Inclination
97.3923°
RAAN
79.9801°
Arg. of periapsis
147.7658°
True anomaly
212.35893°
Mean anomaly
212.3772°
Eccentric anomaly
212.36807°
Mean motion
3.86161 °/min
Orbital period
93.23 mins
BSTAR
0.0013036
Loading maneuver chart data...
Computing Atmospheric mass density...
Loading historical data...
Loading historical data...
Loading historical data...
Loading historical data...
Loading historical data...
Loading historical data...
Loading historical data...

Documentation

Showing up to 5 results
|